| time (UTC) | temp F | wind direction | speed MPH | gust MPH | rain 1hr in | rain 24hr in | rain mn in | humidity % | barometer mb |
| 20260504231016 | 69 | 260 | 4.0 | 10.0 | 0.00 | 0.02 | 0.02 | 47 | 1010.1 |
| 20260504230017 | 70 | 281 | 2.0 | 6.0 | 0.00 | 0.02 | 0.02 | 47 | 1010.1 |
| 20260504225016 | 70 | 266 | 3.0 | 7.0 | 0.00 | 0.02 | 0.02 | 46 | 1010.0 |
| 20260504224016 | 71 | 171 | 2.0 | 12.0 | 0.00 | 0.02 | 0.02 | 44 | 1010.0 |
| 20260504223017 | 71 | 271 | 3.0 | 9.0 | 0.00 | 0.02 | 0.02 | 44 | 1010.2 |
| 20260504222017 | 72 | 271 | 4.0 | 9.0 | 0.00 | 0.02 | 0.02 | 43 | 1010.1 |
| 20260504221017 | 72 | 134 | 4.0 | 15.0 | 0.00 | 0.02 | 0.02 | 42 | 1010.1 |
| 20260504220017 | 72 | 265 | 2.0 | 6.0 | 0.00 | 0.02 | 0.02 | 43 | 1010.1 |
| 20260504215017 | 72 | 263 | 3.0 | 7.0 | 0.00 | 0.02 | 0.02 | 41 | 1010.2 |
| 20260504214018 | 73 | 264 | 4.0 | 12.0 | 0.00 | 0.02 | 0.02 | 42 | 1010.3 |
| 20260504213018 | 73 | 267 | 3.0 | 9.0 | 0.00 | 0.02 | 0.02 | 41 | 1010.3 |
| 20260504212017 | 73 | 261 | 4.0 | 8.0 | 0.00 | 0.02 | 0.02 | 43 | 1010.2 |
| 20260504211018 | 73 | 224 | 3.0 | 9.0 | 0.00 | 0.02 | 0.02 | 41 | 1010.3 |
| 20260504210038 | 73 | 270 | 4.0 | 9.0 | 0.00 | 0.02 | 0.02 | 41 | 1010.3 |
| 20260504205018 | 73 | 244 | 3.0 | 8.0 | 0.00 | 0.02 | 0.02 | 41 | 1010.5 |
| 20260504204018 | 73 | 254 | 3.0 | 7.0 | 0.00 | 0.02 | 0.02 | 43 | 1010.5 |
| 20260504203018 | 73 | 264 | 3.0 | 6.0 | 0.00 | 0.03 | 0.02 | 42 | 1010.5 |
| 20260504202020 | 72 | 123 | 4.0 | 11.0 | 0.00 | 0.03 | 0.02 | 42 | 1010.6 |
| 20260504201056 | 72 | 258 | 4.0 | 10.0 | 0.00 | 0.03 | 0.02 | 42 | 1010.8 |
| 20260504200016 | 72 | 268 | 4.0 | 8.0 | 0.00 | 0.03 | 0.02 | 43 | 1011.0 |
| 20260504195056 | 72 | 211 | 4.0 | 9.0 | 0.00 | 0.03 | 0.02 | 42 | 1011.1 |
| 20260504194016 | 72 | 276 | 5.0 | 11.0 | 0.00 | 0.03 | 0.02 | 42 | 1011.2 |
| 20260504193016 | 72 | 86 | 4.0 | 11.0 | 0.00 | 0.03 | 0.02 | 43 | 1011.4 |
| 20260504192016 | 72 | 115 | 3.0 | 9.0 | 0.00 | 0.03 | 0.02 | 42 | 1011.6 |
| 20260504191016 | 72 | 265 | 3.0 | 8.0 | 0.00 | 0.03 | 0.02 | 42 | 1011.8 |
| 20260504190016 | 72 | 174 | 4.0 | 10.0 | 0.01 | 0.03 | 0.02 | 40 | 1011.8 |
| 20260504185017 | 72 | 262 | 4.0 | 8.0 | 0.01 | 0.03 | 0.02 | 42 | 1012.0 |
| 20260504184041 | 72 | 281 | 5.0 | 12.0 | 0.01 | 0.03 | 0.02 | 44 | 1012.0 |
| 20260504183017 | 72 | 299 | 3.0 | 9.0 | 0.01 | 0.03 | 0.02 | 44 | 1012.1 |
| 20260504182017 | 72 | 255 | 3.0 | 7.0 | 0.01 | 0.03 | 0.02 | 44 | 1012.1 |
| 20260504181017 | 71 | 124 | 3.0 | 9.0 | 0.01 | 0.03 | 0.02 | 43 | 1012.1 |
| 20260504180017 | 71 | 283 | 3.0 | 8.0 | 0.00 | 0.02 | 0.01 | 45 | 1012.5 |
| 20260504175017 | 70 | 124 | 4.0 | 8.0 | 0.00 | 0.02 | 0.01 | 44 | 1012.6 |
| 20260504174018 | 71 | 267 | 4.0 | 9.0 | 0.00 | 0.02 | 0.01 | 45 | 1012.7 |
| 20260504173017 | 70 | 276 | 3.0 | 8.0 | 0.00 | 0.02 | 0.01 | 46 | 1012.9 |
| 20260504172017 | 69 | 79 | 4.0 | 10.0 | 0.00 | 0.02 | 0.01 | 45 | 1013.0 |
| 20260504171018 | 70 | 272 | 3.0 | 7.0 | 0.00 | 0.02 | 0.01 | 45 | 1013.1 |
| 20260504151037 | 66 | 265 | 3.0 | 6.0 | 0.01 | 0.02 | 0.01 | 45 | 1014.6 |
| 20260504141017 | 62 | 278 | 2.0 | 5.0 | 0.00 | 0.01 | 0.00 | 53 | 1015.0 |
| 20260504081017 | 38 | 354 | 1.0 | 2.0 | 0.00 | 0.01 | 0.00 | 87 | 1014.8 |
| 20260504045038 | 39 | 45 | 1.0 | 2.0 | 0.00 | 0.01 | 0.00 | 83 | 1014.9 |
| 20260504044016 | 40 | 268 | 2.0 | 3.0 | 0.00 | 0.01 | 0.00 | 83 | 1014.9 |
| 20260504043036 | 40 | 87 | 1.0 | 3.0 | 0.00 | 0.01 | 0.00 | 82 | 1015.1 |
| 20260504042016 | 40 | 84 | 1.0 | 2.0 | 0.00 | 0.01 | 0.00 | 82 | 1014.9 |
| 20260504041016 | 40 | 359 | 1.0 | 3.0 | 0.00 | 0.01 | 0.00 | 81 | 1014.8 |
| 20260504040016 | 40 | 95 | 1.0 | 2.0 | 0.00 | 0.01 | 0.00 | 80 | 1014.8 |
| 20260504035017 | 40 | 97 | 1.0 | 2.0 | 0.00 | 0.01 | 0.01 | 81 | 1014.7 |
| 20260504034016 | 41 | 251 | 1.0 | 2.0 | 0.00 | 0.01 | 0.01 | 80 | 1014.6 |
| 20260504033017 | 41 | 112 | 1.0 | 2.0 | 0.00 | 0.01 | 0.01 | 79 | 1014.5 |
| 20260504032017 | 41 | 98 | 1.0 | 2.0 | 0.00 | 0.01 | 0.01 | 77 | 1014.5 |
| 20260504031017 | 41 | 122 | 1.0 | 2.0 | 0.00 | 0.01 | 0.01 | 76 | 1014.4 |
| 20260504030017 | 42 | 107 | 1.0 | 2.0 | 0.00 | 0.01 | 0.01 | 77 | 1014.4 |
| 20260504025017 | 42 | 89 | 1.0 | 2.0 | 0.00 | 0.01 | 0.01 | 76 | 1014.4 |
| 20260504024017 | 43 | 114 | 1.0 | 2.0 | 0.00 | 0.01 | 0.01 | 75 | 1014.3 |
| 20260504023017 | 43 | 106 | 1.0 | 2.0 | 0.00 | 0.01 | 0.01 | 73 | 1014.3 |
| 20260504022018 | 43 | 112 | 1.0 | 2.0 | 0.00 | 0.01 | 0.01 | 74 | 1014.3 |
| 20260504021018 | 44 | 321 | 1.0 | 2.0 | 0.00 | 0.01 | 0.01 | 73 | 1014.3 |
| 20260504020018 | 44 | 110 | 1.0 | 2.0 | 0.00 | 0.01 | 0.01 | 71 | 1014.3 |
| 20260504015018 | 45 | 62 | 1.0 | 2.0 | 0.00 | 0.01 | 0.01 | 70 | 1014.2 |
| 20260504014018 | 45 | 61 | 1.0 | 2.0 | 0.00 | 0.01 | 0.01 | 68 | 1014.2 |
| 20260504013018 | 45 | 35 | 1.0 | 2.0 | 0.00 | 0.01 | 0.01 | 69 | 1014.0 |
| 20260504012019 | 46 | 358 | 1.0 | 2.0 | 0.00 | 0.01 | 0.01 | 65 | 1014.0 |
| 20260504011017 | 47 | 115 | 2.0 | 4.0 | 0.00 | 0.01 | 0.01 | 65 | 1013.9 |
| 20260504010018 | 47 | 120 | 2.0 | 5.0 | 0.00 | 0.01 | 0.01 | 65 | 1013.8 |
| 20260504005016 | 48 | 101 | 2.0 | 6.0 | 0.00 | 0.01 | 0.01 | 63 | 1013.8 |
| 20260504004016 | 49 | 121 | 1.0 | 3.0 | 0.00 | 0.01 | 0.01 | 59 | 1013.7 |
| 20260504003036 | 50 | 98 | 1.0 | 3.0 | 0.00 | 0.01 | 0.01 | 58 | 1013.5 |
| 20260504002017 | 51 | 86 | 1.0 | 2.0 | 0.00 | 0.01 | 0.01 | 55 | 1013.4 |
| 20260504001016 | 52 | 86 | 1.0 | 3.0 | 0.00 | 0.01 | 0.01 | 54 | 1013.4 |
| 20260504000017 | 54 | 90 | 1.0 | 3.0 | 0.00 | 0.01 | 0.01 | 51 | 1013.3 |
| 20260503235016 | 55 | 54 | 1.0 | 2.0 | 0.00 | 0.01 | 0.01 | 48 | 1013.1 |
| 20260503234036 | 57 | 24 | 1.0 | 2.0 | 0.00 | 0.01 | 0.01 | 44 | 1012.9 |
| 20260503233017 | 58 | 330 | 1.0 | 4.0 | 0.00 | 0.01 | 0.01 | 42 | 1013.0 |
| 20260503232017 | 58 | 293 | 2.0 | 5.0 | 0.00 | 0.01 | 0.01 | 40 | 1013.2 |